Weather History for Holland, MI

Change the Weather History Date:

Wednesday, June 26, 2013

  Actual Average Record
Temperature  
Mean Temperature 76 °F 71 °F  
Max Temperature 84 °F 81 °F 97 °F (1988)
Min Temperature 68 °F 61 °F 45 °F (1979)
Degree Days  
Heating Degree Days 0 1  
Month to date heating degree days 34 47  
Since 1 June heating degree days 34 47  
Since 1 July heating degree days 5983 6159  
Cooling Degree Days 11 7  
Month to date cooling degree days 131 118  
Year to date cooling degree days 221 160  
Since 1 June cooling degree days 131 118  
Growing Degree Days 26 (Base 50)    
Moisture  
Dew Point 67 °F    
Average Humidity 77    
Maximum Humidity 90    
Minimum Humidity 63    
Precipitation  
Precipitation T in 0.13 in 3.41 in (1978)
Month to date precipitation 4.36 3.72  
Year to date precipitation 22.89 16.31  
Sea Level Pressure  
Sea Level Pressure 29.80 in    
Wind  
Wind Speed 5 mph (South)    
Max Wind Speed 15 mph    
Max Gust Speed 21 mph    
Visibility 10 miles    
Events Rain , Thunderstorm    
T = Trace of Precipitation, MM = Missing Value Source: NWS Daily Summary

Daily Weather History Graph

Daily Weather History Graph

Search for Another Location

Airport:

Trip Planner

Search our weather history database for the weather conditions in past years. The results will help you decide how hot, cold, wet, or windy it might be!

Date:

Astronomy

Jun. 26, 2013 Rise Set
Actual Time 6:07 AM EDT 9:26 PM EDT
Civil Twilight 5:32 AM EDT 10:01 PM EDT
Nautical Twilight 4:47 AM EDT 10:47 PM EDT
Astronomical Twilight 3:51 AM EDT 11:43 PM EDT
Moon 11:43 PM EDT (6/26) 10:04 AM EDT (6/26)
Length of Visible Light 16h 29m
Length of Day
15h 18m
Waning Gibbous, 85% of the Moon is Illuminated
Jun 26
Waning Gibbous
Jun 30
Last Quarter
Jul 8
New
Jul 15
First Quarter
Jul 22
Full

Hourly Weather History & Observations

Time (EDT) Temp. Heat Index Dew Point Humidity Pressure Visibility Wind Dir Wind Speed Gust Speed Precip Events Conditions
12:14 AM 73.4 °F - 69.8 °F 88% 29.87 in 6.0 mi SSE 5.8 mph - N/A   Haze
12:53 AM 73.9 °F - 68.0 °F 82% 29.86 in 10.0 mi South 8.1 mph - N/A   Mostly Cloudy
1:53 AM 72.0 °F - 68.0 °F 87% 29.84 in 9.0 mi South 6.9 mph - N/A   Clear
2:30 AM 71.6 °F - 66.2 °F 83% 29.83 in 10.0 mi South 5.8 mph - N/A Thunderstorm Clear
2:45 AM 71.6 °F - 66.2 °F 83% 29.85 in 10.0 mi SSW 6.9 mph - N/A   Clear
2:53 AM 72.0 °F - 66.9 °F 84% 29.84 in 10.0 mi SSW 8.1 mph - N/A   Clear
3:53 AM 72.0 °F - 66.9 °F 84% 29.81 in 10.0 mi SSW 9.2 mph - N/A   Clear
4:53 AM 70.0 °F - 66.0 °F 87% 29.80 in 10.0 mi South 4.6 mph - N/A   Clear
5:53 AM 69.1 °F - 64.9 °F 87% 29.79 in 10.0 mi Calm Calm - N/A   Clear
6:53 AM 70.0 °F - 66.0 °F 87% 29.81 in 10.0 mi East 3.5 mph - N/A   Clear
7:53 AM 73.0 °F - 66.0 °F 79% 29.82 in 10.0 mi South 4.6 mph - N/A   Clear
8:53 AM 73.0 °F - 66.0 °F 79% 29.84 in 10.0 mi SSW 3.5 mph - N/A   Partly Cloudy
9:31 AM 73.4 °F - 66.2 °F 78% 29.87 in 10.0 mi SW 10.4 mph 16.1 mph N/A   Mostly Cloudy
9:53 AM 73.9 °F - 66.9 °F 79% 29.86 in 10.0 mi SW 11.5 mph 17.3 mph N/A   Scattered Clouds
10:40 AM 71.6 °F - 64.4 °F 78% 29.87 in 10.0 mi SSW 10.4 mph - N/A   Overcast
10:53 AM 71.1 °F - 66.0 °F 84% 29.85 in 10.0 mi South 5.8 mph - 0.00 in Rain Light Rain
11:53 AM 77.0 °F - 66.9 °F 71% 29.79 in 10.0 mi East 10.4 mph - 0.00 in   Clear
12:53 PM 78.1 °F - 68.0 °F 71% 29.80 in 10.0 mi East 6.9 mph - N/A   Clear
1:53 PM 80.1 °F 82.9 °F 69.1 °F 69% 29.80 in 10.0 mi SE 4.6 mph - N/A   Mostly Cloudy
2:53 PM 81.0 °F 83.8 °F 68.0 °F 65% 29.78 in 10.0 mi ESE 6.9 mph - N/A   Overcast
3:53 PM 82.9 °F 85.8 °F 68.0 °F 60% 29.78 in 10.0 mi SE 9.2 mph - N/A   Mostly Cloudy
4:53 PM 82.9 °F 86.5 °F 69.1 °F 63% 29.76 in 10.0 mi SSE 8.1 mph - N/A   Mostly Cloudy
5:53 PM 82.0 °F 85.5 °F 69.1 °F 65% 29.74 in 10.0 mi SE 4.6 mph - N/A   Overcast
6:53 PM 82.0 °F 84.9 °F 68.0 °F 62% 29.74 in 10.0 mi ESE 4.6 mph - N/A   Overcast
7:53 PM 73.0 °F - 66.9 °F 81% 29.75 in 10.0 mi WSW 8.1 mph - 0.00 in Rain Light Rain
8:53 PM 73.9 °F - 66.9 °F 79% 29.74 in 10.0 mi NNW 4.6 mph - 0.00 in   Mostly Cloudy
9:53 PM 73.9 °F - 68.0 °F 82% 29.74 in 10.0 mi North 3.5 mph - N/A   Mostly Cloudy
10:53 PM 75.0 °F - 68.0 °F 79% 29.75 in 10.0 mi Calm Calm - N/A   Mostly Cloudy
11:53 PM 73.0 °F - 69.1 °F 87% 29.75 in 8.0 mi Calm Calm - 0.00 in   Partly Cloudy